This is the latest recevied weather packets stored in our database for station/object YD1OCG-15. If no packets are shown the sender has not sent any weather packets the latest 10 day(s).
| Time | Temp. | Humidity | Pressure | Rain* | Wind** | Luminosity | Snow |
|---|---|---|---|---|---|---|---|
| 1788477745 | 24.44° C | 76% | 1016 hPa | - | - | - | - |
| 1788475946 | 25.56° C | 81% | 1016 hPa | - | - | - | - |
| 1788474145 | 25° C | 78% | 1014 hPa | - | - | - | - |
| 1788472345 | 25.56° C | 81% | 1015 hPa | - | - | - | - |
| 1788468745 | 26.11° C | 80% | 1014 hPa | - | - | - | - |
| 1788466945 | 25.56° C | 79% | 1013 hPa | - | - | - | - |
| 1788465146 | 26.11° C | 80% | 1014 hPa | - | - | - | - |
| 1788463346 | 25.56° C | 79% | 1014 hPa | - | - | - | - |
| 1788461545 | 26.11° C | 82% | 1014 hPa | - | - | - | - |
| 1788459745 | 26.67° C | 84% | 1015 hPa | - | - | - | - |
| 1788454346 | 26.67° C | 77% | 1015 hPa | - | - | - | - |
| 1788452545 | 26.11° C | 73% | 1015 hPa | - | - | - | - |
| 1788450745 | 26.67° C | 75% | 1016 hPa | - | - | - | - |
| 1788448946 | 26.67° C | 71% | 1015 hPa | - | - | - | - |
| 1788447146 | 27.22° C | 75% | 1015 hPa | - | - | - | - |
| 1788445345 | 26.67° C | 73% | 1015 hPa | - | - | - | - |
| 1788443546 | 27.22° C | 76% | 1015 hPa | - | - | - | - |
| 1788441745 | 26.67° C | 71% | 1014 hPa | - | - | - | - |
| 1788439945 | 27.22° C | 71% | 1015 hPa | - | - | - | - |
| 1788436587 | 27.78° C | 67% | 1014 hPa | - | - | - | - |
| 1788434787 | 27.78° C | 67% | 1012 hPa | - | - | - | - |
| 1788432987 | 28.33° C | 65% | 1012 hPa | - | - | - | - |
| 1788431188 | 29.44° C | 48% | 1011 hPa | - | - | - | - |
| 1788429388 | 29.44° C | 47% | 1011 hPa | - | - | - | - |
| 1788427587 | 30° C | 59% | 1010 hPa | - | - | - | - |
* Rain since midnight (hover to see other rain measurements)
** Current wind speed in m/s (hover to see current wind gust speed)